x

Buzzards Bay, Ma (buzm3) Weather Station

2:00 - Tue 27th Jun 2017 All times are EDT. -4 hours from GMT.

  • Wind
    6mph, 6mph gusts
  • Luft Temp 65°f
  • Sea Pressure 1016.2mb
  • Buzzards Bay, Ma
  • Buzzards Bay, Ma

More Historic Weather Station data

Upgrade to MSW Pro to gain access to the past 30 days of data for over 8000 Wavebouys and Weather Stations around the globe.

Join Pro

Comparision Forecast

View Surf forecast
   
Di 06/27 2:00 6 6 mph 1016.2mb 65f
1:00 6 7 mph 1016.7mb 64f
12:00 6 6 mph 1016.8mb 64f
Mo 06/26 11:00 11 13 mph 1016.5mb 65f
10:00 16 17 mph 1016.2mb 65f
9:00 17 18 mph 1015.9mb 65f
8:00 17 18 mph 1015.8mb 65f
7:00 17 18 mph 1015.8mb 65f
6:00 16 17 mph 1015.8mb 65f
5:00 17 18 mph 1015.6mb 65f
4:00 18 20 mph 1015.7mb 66f
3:00 16 17 mph 1015.9mb 65f
2:00 15 15 mph 1016.2mb 65f
1:00 16 16 mph 1016.2mb 65f
12:00 15 16 mph 1016.5mb 64f
11:00 14 14 mph 1016.4mb 64f
10:00 15 15 mph 1016.6mb 64f
9:00 9 10 mph 1016.4mb 65f
8:00 11 11 mph 1016.1mb 67f
7:00 13 14 mph 1015.8mb 67f
6:00 10 11 mph 1015.5mb 65f
5:00 5 6 mph 1014.7mb 64f
4:00 7 7 mph 1014.3mb 65f
3:00 8 8 mph 1014.1mb 66f
2:00 7 9 mph 1014.4mb 67f
1:00 7 8 mph 1014.2mb 65f
12:00 14 15 mph 1013.7mb 65f
So 06/25 11:00 18 18 mph 1013.9mb 66f
10:00 16 17 mph 1014.3mb 66f
9:00 17 18 mph 1014mb 67f
8:00 10 10 mph 1014.3mb 67f
7:00 14 14 mph 1014mb 67f
6:00 17 17 mph 1013.2mb 67f
5:00 21 22 mph 1013mb 68f
4:00 20 21 mph 1013.3mb 67f
3:00 18 20 mph 1013.9mb 67f
2:00 20 21 mph 1014.3mb 69f
1:00 15 16 mph 1014.6mb 68f
12:00 14 14 mph 1014.9mb 69f
11:00 11 11 mph 1015.1mb 69f
10:00 10 10 mph 1015.2mb 67f
9:00 11 11 mph 1015.1mb 68f
8:00 13 14 mph 1015mb 66f
7:00 9 10 mph 1014.5mb 67f
6:00 9 9 mph 1013.8mb 69f
5:00 9 10 mph 1013.2mb 68f
4:00 8 8 mph 1012.4mb 69f
3:00 9 10 mph 1012.3mb 69f
2:00 14 15 mph 1012.3mb 66f
1:00 15 16 mph 1011.8mb 69f
12:00 15 15 mph 1011.7mb 68f
Sa 06/24 11:00 18 18 mph 1011.3mb 70f
10:00 21 22 mph 1010.6mb 74f
9:00 14 15 mph 1009.5mb 71f
8:00 20 21 mph 1008.4mb 76f
7:00 22 23 mph 1007.3mb 76f
6:00 21 22 mph 1006.4mb -
5:00 21 22 mph 1005.7mb -
4:00 18 18 mph 1004.5mb 68f
3:00 24 25 mph 1003.9mb 68f
2:00 20 21 mph 1003.2mb 65f
1:00 17 17 mph 1002.8mb 64f
12:00 16 17 mph 1002mb 65f
11:00 18 20 mph 1002.3mb 65f
10:00 18 18 mph 1002.1mb 66f
9:00 22 23 mph 1002.7mb 66f
8:00 22 23 mph 1002.6mb 65f
7:00 26 28 mph 1002.6mb 66f
6:00 26 28 mph 1002.5mb 66f
5:00 28 30 mph 1002.4mb 66f
4:00 24 26 mph 1002.6mb 65f
3:00 25 28 mph 1002.7mb 65f
2:00 16 17 mph 1003.8mb 66f
1:00 25 26 mph 1003.6mb 66f
12:00 24 26 mph 1004.3mb 67f
Fr 06/23 11:00 25 29 mph 1004.8mb 67f
10:00 26 29 mph 1005.5mb 66f
9:00 29 32 mph 1004.7mb 66f
8:00 25 28 mph 1004.9mb 66f
7:00 30 33 mph 1005.2mb 67f
6:00 28 29 mph 1005.5mb 66f
5:00 20 21 mph 1006.4mb 66f
4:00 22 23 mph 1006.7mb 67f
3:00 18 21 mph 1007.5mb 66f
2:00 21 22 mph 1008.1mb 66f
1:00 20 21 mph 1009mb 66f
12:00 18 20 mph 1009.6mb 65f
11:00 14 14 mph 1010.1mb 65f
10:00 18 20 mph 1010.3mb 65f
9:00 20 21 mph 1010.7mb 65f
8:00 14 15 mph 1010.9mb 64f